#timestamp,LO_Frequency,Hit,StdDev 
1662706815.5,286047001.0,N
1662706835.3,286046998.2,N
1662706855.2,286047000.9,N
1662706875.0,286047001.0,N
1662706875.9,286047001.0,N
1662706895.8,286046998.2,N
1662706915.6,286046998.7,N
1662706935.4,286047000.6,N
1662706955.3,286047000.4,N
1662706975.1,286046999.8,N
1662706995.9,286046999.7,N
1662707015.7,286046999.7,N
1662707035.5,286047000.1,N
1662707055.4,286046998.2,N
1662707075.2,286047000.2,N
1662707095.0,286047001.2,N
1662707095.9,286047001.2,N
1662707115.8,286047000.9,N
1662707135.6,286047000.7,N
1662707155.5,286046999.7,N
1662707175.3,286047001.7,N
1662707195.1,286047002.3,N
1662707215.9,286047002.1,N
1662707235.7,286047001.7,N
1662707255.5,286047002.6,N
1662707275.4,286046999.8,N
1662707295.2,286047000.9,N
1662707315.1,286047000.3,N
1662707316.0,286047000.3,N
1662707335.8,286047000.0,N
1662707355.6,286047000.1,N
1662707375.5,286047002.1,N
1662707395.3,286047002.5,N
1662707415.1,286047002.7,N
1662707435.9,286047001.3,N
1662707455.7,286047001.4,N
1662707475.6,286047001.4,N
1662707495.4,286047003.5,Y
1662707515.2,286047004.1,P
1662707535.1,286047003.2,N
1662707536.0,286047003.2,N
1662707555.8,286047004.0,Y
1662707575.6,286047002.2,P
1662707595.5,286046998.9,P
1662707615.3,286046999.2,N
1662707635.2,286046998.9,N
1662707655.9,286046999.5,N
1662707675.7,286046999.3,N
1662707695.6,286046999.4,N
1662707715.4,286046998.6,N
1662707735.2,286046998.9,N
1662707755.1,286047001.2,N
1662707756.0,286047001.2,N
1662707775.8,286046997.1,N
1662707795.7,286046995.5,N
1662707815.5,286046999.6,N
1662707835.3,286046996.6,N
1662707855.2,286046999.4,N
1662707875.0,286046996.6,N
1662707875.9,286046996.6,N
1662707895.7,286046996.6,N
1662707915.6,286046997.6,N
1662707935.4,286046996.7,N
1662707955.3,286046999.3,N
1662707975.1,286046998.9,N
1662707976.0,286046998.9,N
1662707995.8,286046998.3,N
1662708015.7,286046996.9,N
1662708035.5,286046999.1,N
1662708055.3,286046998.3,N
1662708075.2,286046997.1,N
1662708095.0,286046996.9,N
1662708095.9,286046996.9,N
1662708115.8,286046997.4,N
1662708135.6,286046999.4,N
1662708155.4,286046999.2,N
1662708175.3,286046996.7,N
1662708195.1,286046995.0,Y
1662708215.8,286046996.5,P
1662708235.7,286046999.0,N
1662708255.5,286046998.1,N
1662708275.4,286046998.5,N
1662708295.2,286047001.1,N
1662708315.0,286046998.3,N
1662708315.9,286046998.3,N
1662708335.8,286046998.8,N
1662708355.6,286046998.4,N
1662708375.5,286046998.3,N
1662708395.3,286046998.8,N
1662708415.1,286047000.8,N
1662708435.9,286047000.5,N
1662708455.7,286047002.1,N
1662708475.5,286047002.8,N
1662708495.4,286047002.5,N
1662708515.2,286047002.5,N
1662708535.1,286046999.8,N
1662708536.0,286046999.8,N
1662708555.8,286047000.2,N
1662708575.6,286047002.6,N
1662708595.5,286047001.6,N
1662708615.3,286047001.4,N
1662708635.2,286047004.1,N
1662708655.9,286047003.3,N
1662708675.7,286047003.0,N
1662708695.6,286047001.3,N
1662708715.4,286047003.9,N
1662708735.3,286047001.8,N
1662708755.1,286047002.5,N
1662708756.0,286047002.5,N
1662708775.8,286046999.8,N
1662708795.7,286046999.8,N
1662708815.5,286047000.1,N
1662708835.3,286047001.0,N
1662708855.2,286046999.8,N
1662708875.0,286047001.5,N
1662708875.9,286047001.5,N
1662708895.8,286047001.9,N
1662708915.6,286047004.3,N
1662708935.4,286047002.4,N
1662708955.3,286047003.7,N
1662708975.1,286047003.7,N
1662708995.8,286047003.8,N
1662709015.7,286047004.2,N
1662709035.5,286047004.3,N
1662709055.4,286047001.3,N
1662709075.2,286047001.8,N
1662709095.0,286047002.0,N
1662709095.9,286047002.0,N
1662709115.8,286046999.9,N
1662709135.6,286047000.0,N
1662709155.5,286047001.9,N
1662709175.3,286047001.9,N
1662709195.1,286047001.9,N
1662709215.9,286047004.0,N
1662709235.7,286047004.4,Y
1662709255.5,286046998.6,P
1662709275.4,286047000.4,N
1662709295.2,286047001.2,N
1662709315.1,286047002.8,N
1662709316.0,286047002.8,N
1662709335.8,286046999.8,N
1662709355.6,286047000.7,N
1662709375.5,286047000.7,N
1662709395.3,286047000.4,N
1662709415.1,286047000.6,N
1662709435.9,286047000.4,N
1662709455.7,286047001.2,N
1662709475.6,286046998.7,N
1662709495.4,286046997.1,N
1662709515.2,286046996.5,N
1662709535.1,286046998.7,N
1662709536.0,286046998.7,N
1662709555.8,286046998.7,N
1662709575.7,286047001.2,N
1662709595.5,286046998.9,N
1662709615.3,286046998.6,N
1662709635.2,286046996.8,N
1662709655.9,286046997.1,N
1662709675.7,286046997.7,N
1662709695.6,286046997.1,N
1662709715.4,286046999.5,N
1662709735.2,286046999.5,N
1662709755.1,286046996.6,N
1662709756.0,286046996.6,N
1662709775.8,286046999.3,N
1662709795.7,286047000.9,N
1662709815.5,286046999.9,N
1662709835.3,286047002.6,N
1662709855.2,286047002.5,N
1662709875.0,286047000.1,N
1662709875.9,286047000.1,N
1662709895.8,286047004.3,N
1662709915.6,286047003.6,N
1662709935.4,286047003.8,N
1662709955.3,286047003.9,N
1662709975.1,286047003.1,N
1662709995.8,286047006.0,N
1662710015.7,286047003.0,N
1662710035.5,286047005.9,N
1662710055.4,286047005.8,N
1662710075.2,286047003.5,N
1662710095.0,286047003.9,N
1662710095.9,286047003.9,N
1662710115.8,286047001.4,N
1662710135.6,286047002.5,N
1662710155.4,286047002.5,N
1662710175.3,286047001.0,N
1662710195.1,286046999.9,N
1662710215.9,286047000.6,N
1662710235.7,286047000.4,N
1662710255.5,286046998.6,N
1662710275.4,286046999.0,N
1662710295.2,286046999.2,N
1662710315.0,286046996.6,N
1662710315.9,286046996.6,N
1662710335.8,286046997.4,N
1662710355.6,286046998.5,N
1662710375.5,286046998.8,N
1662710395.3,286046999.1,N
